Location: Concrete Bridge Crossing
(40.5373°N, 78.8672°W)
Time: 20:04:25
(UTC+00:00)

X-37B - Visible Passes

Search period start: 25 November 2020 00:00
Search period end: 05 December 2020 00:00
Orbit: 384 x 389 km, 45.0° (Epoch: 12 November)

Date Brightness Start Highest point End Pass type
(mag) Time Alt. Az. Time Alt. Az. Time Alt. Az.
25 Nov 2.7 23:02:04 10° S 23:03:54 15° SE 23:04:30 14° SE visible
26 Nov 1.5 23:38:34 10° SW 23:41:02 41° S 23:41:02 41° S visible
27 Nov 2.0 22:40:27 10° SSW 22:43:10 26° SE 22:45:13 14° E visible
28 Nov 3.5 00:16:30 10° W 00:17:30 18° W 00:17:30 18° W visible
28 Nov 0.5 23:17:52 10° WSW 23:21:02 86° SSE 23:21:38 55° ENE visible
29 Nov 1.1 22:19:26 10° SW 22:22:30 48° SSE 22:25:35 10° ENE visible
29 Nov 2.4 23:56:07 10° W 23:58:00 29° WNW 23:58:00 29° WNW visible
30 Nov 0.8 22:57:22 10° W 23:00:31 60° NNW 23:02:04 26° NE visible
01 Dec 1.7 23:35:46 10° WNW 23:38:22 34° NNW 23:38:22 34° NNW visible
02 Dec 1.3 22:36:59 10° W 22:40:02 43° NNW 22:42:25 15° ENE visible
03 Dec 3.6 00:14:04 10° WNW 00:14:41 14° WNW 00:14:41 14° WNW visible
03 Dec 1.5 23:15:23 10° WNW 23:18:20 34° N 23:18:44 32° NNE visible
04 Dec 1.5 22:16:38 10° WNW 22:19:36 36° N 22:22:35 10° ENE visible
04 Dec 2.6 23:53:33 10° WNW 23:55:05 24° NW 23:55:05 24° NW visible
